^^
Paulen-Weather Station Historical Data
Daily Summary for January 11, 2020 Units:  Metric    English   Both
Daily Weekly Monthly Yearly Custom
  High: Low: Average:
Temperature: 8 °C 0 °C 6.5 °C
Dew Point: 8 °C -2 °C 5.6 °C
Humidity: 97% 86% 94%
Wind Speed: 47km/h 0km/h 29.7km/h
Wind Gust: 56km/h - -
Wind- - SSE
Pressure: 1021.91 hPa 1002.71 hPa -
Precipitation: 24.41 mm    
Historical Graphs
 
 
Tabular Data for January 11, 2020
Time Temperature Dew Point Pressure Wind Wind Speed Wind Gust Humidity Rainfall Rate (Hourly) solar
00:04 0 °C -1 °C 1021.91 hPa N 6 km/h 6 km/h 91% 0 mm 0 W/m2
00:09 0 °C -2 °C 1021.88 hPa N 6 km/h 5 km/h 91% 0 mm 0 W/m2
00:14 0 °C -1 °C 1021.88 hPa N 6 km/h 5 km/h 91% 0 mm 0 W/m2
00:19 0 °C -1 °C 1021.78 hPa N 4 km/h 5 km/h 92% 0 mm 0 W/m2
00:24 0 °C -1 °C 1021.78 hPa N 5 km/h 5 km/h 92% 0 mm 0 W/m2
00:29 0 °C -1 °C 1021.78 hPa N 6 km/h 5 km/h 92% 0 mm 0 W/m2
00:34 0 °C -1 °C 1021.64 hPa N 6 km/h 5 km/h 92% 0 mm 0 W/m2
00:39 0 °C -1 °C 1021.61 hPa NNE 6 km/h 7 km/h 92% 0 mm 0 W/m2
00:44 0 °C -1 °C 1021.57 hPa NE 6 km/h 8 km/h 92% 0 mm 0 W/m2
00:49 0 °C -1 °C 1021.3 hPa NE 5 km/h 5 km/h 92% 0 mm 0 W/m2
00:54 0 °C -1 °C 1021.27 hPa NE 3 km/h 5 km/h 92% 0 mm 0 W/m2
00:59 0 °C -1 °C 1021.23 hPa NE 4 km/h 3 km/h 92% 0 mm 0 W/m2
01:04 0 °C -1 °C 1021.17 hPa NE 3 km/h 5 km/h 92% 0 mm 0 W/m2
01:09 0 °C -1 °C 1021.1 hPa NE 4 km/h 5 km/h 92% 0 mm 0 W/m2
01:14 0 °C -1 °C 1021.17 hPa Calm   5 km/h 93% 0 mm 0 W/m2
01:19 0 °C -1 °C 1021.1 hPa Calm   2 km/h 92% 0 mm 0 W/m2
01:24 0 °C -1 °C 1021.1 hPa NE 2 km/h 2 km/h 92% 0 mm 0 W/m2
01:29 0 °C -1 °C 1021.06 hPa Calm   3 km/h 92% 0 mm 0 W/m2
01:34 0 °C -1 °C 1020.96 hPa Calm     93% 0 mm 0 W/m2
01:39 0 °C -1 °C 1020.86 hPa Calm     93% 0 mm 0 W/m2
01:44 0 °C -1 °C 1020.83 hPa Calm     93% 0 mm 0 W/m2
01:49 0 °C -1 °C 1020.73 hPa Calm     93% 0 mm 0 W/m2
01:54 0 °C -1 °C 1020.56 hPa NE 5 km/h 4 km/h 93% 0 mm 0 W/m2
01:59 0 °C -1 °C 1020.49 hPa NE 4 km/h 5 km/h 93% 0 mm 0 W/m2
02:04 0 °C -1 °C 1020.49 hPa NE 5 km/h 5 km/h 93% 0 mm 0 W/m2
02:09 0 °C -1 °C 1020.49 hPa NE 6 km/h 6 km/h 93% 0 mm 0 W/m2
02:14 0 °C -1 °C 1020.42 hPa NE 5 km/h 6 km/h 93% 0 mm 0 W/m2
02:19 0 °C -1 °C 1020.32 hPa NE 2 km/h 6 km/h 93% 0 mm 0 W/m2
02:24 0 °C -1 °C 1020.42 hPa NNE 2 km/h 5 km/h 93% 0 mm 0 W/m2
02:29 0 °C -1 °C 1020.42 hPa N 7 km/h 6 km/h 94% 0 mm 0 W/m2
02:34 0 °C -1 °C 1020.35 hPa N 7 km/h 8 km/h 94% 0 mm 0 W/m2
02:39 0 °C 0 °C 1020.35 hPa NNE 6 km/h 8 km/h 94% 0 mm 0 W/m2
02:44 1 °C 0 °C 1020.35 hPa NNW 6 km/h 8 km/h 94% 0 mm 0 W/m2
02:49 1 °C 1 °C 1020.15 hPa NW 9 km/h 10 km/h 95% 0 mm 0 W/m2
02:54 3 °C 2 °C 1020.12 hPa WNW 13 km/h 11 km/h 97% 0 mm 0 W/m2
02:59 4 °C 4 °C 1020.01 hPa N 21 km/h 19 km/h 96% 0 mm 0 W/m2
03:04 5 °C 4 °C 1019.78 hPa N 18 km/h 24 km/h 92% 0 mm 0 W/m2
03:09 5 °C 4 °C 1019.71 hPa WNW 18 km/h 19 km/h 89% 0 mm 0 W/m2
03:14 6 °C 4 °C 1019.61 hPa NW 18 km/h 19 km/h 89% 0 mm 0 W/m2
03:19 6 °C 4 °C 1019.47 hPa W 18 km/h 21 km/h 88% 0 mm 0 W/m2
03:24 6 °C 4 °C 1019.51 hPa N 23 km/h 21 km/h 87% 0 mm 0 W/m2
03:29 6 °C 4 °C 1019.61 hPa N 22 km/h 27 km/h 87% 0 mm 0 W/m2
03:34 6 °C 4 °C 1019.61 hPa NNE 27 km/h 25 km/h 87% 0 mm 0 W/m2
03:39 6 °C 4 °C 1019.51 hPa NW 23 km/h 34 km/h 86% 0 mm 0 W/m2
03:44 6 °C 4 °C 1019.57 hPa WNW 27 km/h 27 km/h 86% 0 mm 0 W/m2
03:49 6 °C 4 °C 1019.57 hPa N 21 km/h 34 km/h 86% 0 mm 0 W/m2
03:54 6 °C 4 °C 1019.51 hPa N 25 km/h 24 km/h 86% 0 mm 0 W/m2
03:59 6 °C 4 °C 1019.47 hPa N 23 km/h 27 km/h 86% 0 mm 0 W/m2
04:04 6 °C 4 °C 1019.47 hPa N 24 km/h 32 km/h 87% 0 mm 0 W/m2
04:09 6 °C 4 °C 1019.44 hPa NNE 23 km/h 26 km/h 87% 0 mm 0 W/m2
04:14 6 °C 4 °C 1019.44 hPa NNE 22 km/h 29 km/h 87% 0 mm 0 W/m2
04:19 6 °C 4 °C 1019.27 hPa NNW 23 km/h 26 km/h 87% 0 mm 0 W/m2
04:24 6 °C 4 °C 1019.1 hPa NNE 23 km/h 27 km/h 87% 0 mm 0 W/m2
04:29 6 °C 4 °C 1019.03 hPa NNE 25 km/h 27 km/h 87% 0 mm 0 W/m2
04:34 6 °C 4 °C 1018.86 hPa NNE 26 km/h 32 km/h 87% 0 mm 0 W/m2
04:39 7 °C 5 °C 1018.63 hPa NNE 26 km/h 32 km/h 87% 0 mm 0 W/m2
04:44 7 °C 5 °C 1018.56 hPa N 22 km/h 32 km/h 87% 0 mm 0 W/m2
04:49 7 °C 5 °C 1018.49 hPa NNE 27 km/h 24 km/h 87% 0 mm 0 W/m2
04:54 7 °C 5 °C 1018.46 hPa NNE 33 km/h 29 km/h 86% 0 mm 0 W/m2
04:59 7 °C 4 °C 1018.32 hPa NNE 29 km/h 37 km/h 86% 0 mm 0 W/m2
05:04 7 °C 5 °C 1018.15 hPa N 27 km/h 35 km/h 86% 0 mm 0 W/m2
05:09 7 °C 5 °C 1018.15 hPa NNW 29 km/h 32 km/h 87% 0 mm 0 W/m2
05:14 7 °C 5 °C 1017.95 hPa N 31 km/h 34 km/h 87% 0 mm 0 W/m2
05:19 7 °C 5 °C 1017.91 hPa NNE 32 km/h 35 km/h 87% 0 mm 0 W/m2
05:24 7 °C 5 °C 1017.71 hPa NNE 31 km/h 37 km/h 87% 0 mm 0 W/m2
05:29 7 °C 5 °C 1017.68 hPa NNE 26 km/h 35 km/h 88% 0 mm 0 W/m2
05:34 7 °C 5 °C 1017.54 hPa NNE 28 km/h 29 km/h 88% 0 mm 0 W/m2
05:39 7 °C 5 °C 1017.47 hPa NNE 34 km/h 32 km/h 87% 0 mm 0 W/m2
05:44 7 °C 5 °C 1017.27 hPa NNE 33 km/h 43 km/h 87% 0 mm 0 W/m2
05:49 7 °C 5 °C 1017.24 hPa NNE 34 km/h 40 km/h 87% 0 mm 0 W/m2
05:54 7 °C 5 °C 1017.1 hPa NNE 30 km/h 39 km/h 87% 0 mm 0 W/m2
05:59 7 °C 5 °C 1017.14 hPa NNE 29 km/h 35 km/h 87% 0 mm 0 W/m2
06:04 7 °C 5 °C 1017.07 hPa N 28 km/h 35 km/h 87% 0 mm 0 W/m2
06:09 7 °C 5 °C 1017.1 hPa NNE 31 km/h 32 km/h 87% 0 mm 0 W/m2
06:14 7 °C 5 °C 1016.93 hPa NNE 27 km/h 34 km/h 88% 0 mm 0 W/m2
06:19 7 °C 5 °C 1016.76 hPa NNE 30 km/h 32 km/h 89% 0 mm 0 W/m2
06:24 7 °C 5 °C 1016.66 hPa W 31 km/h 43 km/h 89% 0 mm 0 W/m2
06:29 7 °C 5 °C 1016.56 hPa WNW 32 km/h 32 km/h 90% 0 mm 0 W/m2
06:34 7 °C 5 °C 1016.53 hPa NNE 31 km/h 37 km/h 91% 0 mm 0 W/m2
06:39 6 °C 5 °C 1016.49 hPa NNW 28 km/h 32 km/h 91% 0 mm 0 W/m2
06:44 6 °C 5 °C 1016.46 hPa NNE 36 km/h 32 km/h 89% 0 mm 0 W/m2
06:49 6 °C 5 °C 1016.32 hPa NNE 38 km/h 42 km/h 90% 0 mm 0 W/m2
06:54 6 °C 5 °C 1016.22 hPa NNE 33 km/h 45 km/h 90% 0.2 mm 0 W/m2
06:59 6 °C 5 °C 1016.19 hPa NNW 35 km/h 39 km/h 90% 0.2 mm 0 W/m2
07:04 6 °C 5 °C 1016.05 hPa NNE 37 km/h 43 km/h 89% 0.2 mm 0 W/m2
07:09 6 °C 5 °C 1015.92 hPa NNW 30 km/h 42 km/h 89% 0.2 mm 0 W/m2
07:14 6 °C 5 °C 1015.98 hPa NNE 39 km/h 35 km/h 90% 0.41 mm 0 W/m2
07:19 6 °C 5 °C 1015.92 hPa NNE 41 km/h 45 km/h 89% 0.41 mm 0 W/m2
07:24 6 °C 5 °C 1015.85 hPa NNE 33 km/h 50 km/h 91% 0.61 mm 0 W/m2
07:29 6 °C 5 °C 1015.82 hPa NNE 38 km/h 42 km/h 92% 0.61 mm 0 W/m2
07:34 6 °C 5 °C 1015.75 hPa NNE 32 km/h 48 km/h 92% 0.79 mm 0 W/m2
07:39 6 °C 5 °C 1015.65 hPa WNW 31 km/h 40 km/h 92% 0.79 mm 0 W/m2
07:44 6 °C 5 °C 1015.51 hPa N 38 km/h 43 km/h 93% 0.79 mm 0 W/m2
07:49 6 °C 5 °C 1015.48 hPa NNW 36 km/h 42 km/h 94% 0.99 mm 0 W/m2
07:54 6 °C 5 °C 1015.24 hPa NNE 36 km/h 42 km/h 94% 0.99 mm 0 W/m2
07:59 6 °C 5 °C 1015.04 hPa NNE 36 km/h 39 km/h 94% 0.79 mm 0 W/m2
08:04 6 °C 5 °C 1014.8 hPa NNE 36 km/h 42 km/h 94% 0.99 mm 0 W/m2
08:09 6 °C 5 °C 1014.63 hPa NNE 37 km/h 42 km/h 93% 0.99 mm 0 W/m2
08:14 6 °C 5 °C 1014.56 hPa NNE 37 km/h 45 km/h 93% 0.99 mm 0 W/m2
08:19 6 °C 5 °C 1014.46 hPa WNW 34 km/h 40 km/h 93% 0.79 mm 0 W/m2
08:24 6 °C 5 °C 1014.33 hPa WNW 41 km/h 42 km/h 93% 0.79 mm 0 W/m2
08:29 6 °C 5 °C 1014.12 hPa NNE 44 km/h 51 km/h 92% 0.61 mm 0 W/m2
08:34 6 °C 5 °C 1013.95 hPa SSW 42 km/h 53 km/h 92% 0.79 mm 0 W/m2
08:39 6 °C 5 °C 1013.65 hPa SW 43 km/h 47 km/h 93% 0.61 mm 0 W/m2
08:44 6 °C 5 °C 1013.51 hPa NNE 47 km/h 51 km/h 93% 0.61 mm 0 W/m2
08:49 6 °C 5 °C 1013.51 hPa NNE 45 km/h 51 km/h 92% 0.61 mm 0 W/m2
08:54 7 °C 5 °C 1013.34 hPa N 39 km/h 56 km/h 92% 0.61 mm 0 W/m2
08:59 6 °C 5 °C 1013.24 hPa NNE 39 km/h 47 km/h 93% 0.79 mm 0 W/m2
09:04 6 °C 6 °C 1013.04 hPa NNE 44 km/h 45 km/h 94% 0.79 mm 0 W/m2
09:09 6 °C 6 °C 1013 hPa NNE 42 km/h 51 km/h 94% 0.99 mm 0 W/m2
09:14 6 °C 6 °C 1012.8 hPa NNE 47 km/h 50 km/h 94% 0.99 mm 0 W/m2
09:19 7 °C 6 °C 1012.67 hPa NNE 38 km/h 50 km/h 94% 0.99 mm 0 W/m2
09:24 7 °C 6 °C 1012.5 hPa NNE 40 km/h 40 km/h 93% 0.99 mm 0 W/m2
09:29 7 °C 6 °C 1012.29 hPa NNE 37 km/h 50 km/h 93% 1.19 mm 0 W/m2
09:34 7 °C 6 °C 1012.19 hPa NNE 43 km/h 42 km/h 94% 1.19 mm 0 W/m2
09:39 7 °C 6 °C 1012.02 hPa NNE 40 km/h 48 km/h 94% 1.4 mm 0 W/m2
09:44 7 °C 6 °C 1011.85 hPa NNE 33 km/h 42 km/h 94% 1.6 mm 0 W/m2
09:49 7 °C 6 °C 1011.79 hPa NNE 36 km/h 37 km/h 94% 1.8 mm 0 W/m2
09:54 7 °C 6 °C 1011.62 hPa NNW 37 km/h 40 km/h 94% 1.6 mm 0 W/m2
09:59 7 °C 6 °C 1011.45 hPa NNE 39 km/h 48 km/h 94% 1.8 mm 0 W/m2
10:04 7 °C 6 °C 1011.28 hPa NNW 37 km/h 40 km/h 93% 1.6 mm 0 W/m2
10:09 7 °C 6 °C 1011.24 hPa NNE 32 km/h 40 km/h 93% 1.4 mm 0 W/m2
10:14 7 °C 6 °C 1011.24 hPa NNE 35 km/h 35 km/h 93% 1.19 mm 0 W/m2
10:19 7 °C 6 °C 1011.31 hPa N 36 km/h 37 km/h 93% 1.4 mm 0 W/m2
10:24 7 °C 6 °C 1011.38 hPa N 39 km/h 40 km/h 92% 1.4 mm 0 W/m2
10:29 7 °C 6 °C 1011.38 hPa NNE 35 km/h 42 km/h 92% 1.4 mm 0 W/m2
10:34 7 °C 6 °C 1011.45 hPa NNE 32 km/h 43 km/h 92% 1.19 mm 0 W/m2
10:39 7 °C 6 °C 1011.51 hPa NNE 30 km/h 37 km/h 93% 1.19 mm 5 W/m2
10:44 7 °C 6 °C 1011.38 hPa NNW 31 km/h 34 km/h 93% 1.4 mm 5 W/m2
10:49 7 °C 6 °C 1011.18 hPa N 32 km/h 34 km/h 94% 1.6 mm 5 W/m2
10:54 7 °C 6 °C 1011.04 hPa N 26 km/h 40 km/h 94% 1.6 mm 5 W/m2
10:59 7 °C 6 °C 1010.9 hPa NNE 30 km/h 35 km/h 95% 1.6 mm 5 W/m2
11:04 7 °C 6 °C 1010.87 hPa N 31 km/h 35 km/h 95% 1.8 mm 5 W/m2
11:09 7 °C 7 °C 1010.63 hPa NW 32 km/h 35 km/h 95% 2.01 mm 7 W/m2
11:14 7 °C 7 °C 1010.36 hPa NW 30 km/h 35 km/h 95% 2.01 mm 7 W/m2
11:19 7 °C 7 °C 1010.19 hPa N 34 km/h 34 km/h 95% 2.21 mm 7 W/m2
11:24 7 °C 7 °C 1010.16 hPa NW 35 km/h 48 km/h 95% 2.01 mm 7 W/m2
11:29 7 °C 7 °C 1009.96 hPa N 31 km/h 40 km/h 95% 2.21 mm 7 W/m2
11:34 7 °C 7 °C 1009.79 hPa N 35 km/h 35 km/h 95% 2.21 mm 5 W/m2
11:39 7 °C 7 °C 1009.79 hPa N 32 km/h 39 km/h 95% 2.01 mm 5 W/m2
11:44 7 °C 7 °C 1009.89 hPa NNW 36 km/h 39 km/h 94% 1.6 mm 5 W/m2
11:49 7 °C 7 °C 1009.89 hPa N 35 km/h 40 km/h 94% 1.6 mm 5 W/m2
11:54 8 °C 7 °C 1009.79 hPa NW 36 km/h 39 km/h 94% 1.4 mm 5 W/m2
11:59 8 °C 7 °C 1009.75 hPa NW 35 km/h 45 km/h 94% 1.4 mm 9 W/m2
12:04 8 °C 7 °C 1009.72 hPa NNW 41 km/h 40 km/h 94% 1.6 mm 9 W/m2
12:09 7 °C 7 °C 1009.52 hPa NNE 37 km/h 50 km/h 94% 1.6 mm 9 W/m2
12:14 7 °C 7 °C 1009.41 hPa N 32 km/h 40 km/h 95% 1.6 mm 11 W/m2
12:19 7 °C 7 °C 1009.31 hPa N 31 km/h 37 km/h 95% 1.8 mm 12 W/m2
12:24 7 °C 7 °C 1009.25 hPa N 31 km/h 37 km/h 95% 1.6 mm 11 W/m2
12:29 7 °C 7 °C 1009.11 hPa NW 33 km/h 35 km/h 95% 1.6 mm 11 W/m2
12:34 8 °C 7 °C 1009.01 hPa NNE 33 km/h 37 km/h 95% 1.4 mm 11 W/m2
12:39 8 °C 7 °C 1008.94 hPa NNW 35 km/h 40 km/h 94% 1.6 mm 11 W/m2
12:44 8 °C 7 °C 1008.97 hPa NW 37 km/h 40 km/h 94% 1.6 mm 9 W/m2
12:49 8 °C 7 °C 1008.87 hPa N 36 km/h 45 km/h 94% 1.6 mm 11 W/m2
12:54 8 °C 7 °C 1008.77 hPa NNE 35 km/h 43 km/h 94% 1.6 mm 12 W/m2
12:59 8 °C 7 °C 1008.64 hPa NW 39 km/h 42 km/h 94% 1.8 mm 11 W/m2
13:04 8 °C 7 °C 1008.57 hPa N 33 km/h 43 km/h 94% 1.6 mm 11 W/m2
13:09 8 °C 7 °C 1008.5 hPa N 31 km/h 40 km/h 95% 0.99 mm 11 W/m2
13:14 8 °C 7 °C 1008.26 hPa N 36 km/h 35 km/h 95% 0.99 mm 11 W/m2
13:19 8 °C 7 °C 1008.26 hPa N 31 km/h 45 km/h 95% 0.79 mm 9 W/m2
13:24 8 °C 7 °C 1008.16 hPa N 36 km/h 37 km/h 95% 0.79 mm 11 W/m2
13:29 8 °C 7 °C 1008.09 hPa N 31 km/h 42 km/h 95% 0.99 mm 9 W/m2
13:34 8 °C 7 °C 1008.09 hPa NW 34 km/h 40 km/h 95% 0.99 mm 11 W/m2
13:39 8 °C 7 °C 1008.09 hPa NNW 33 km/h 37 km/h 95% 1.19 mm 11 W/m2
13:44 8 °C 7 °C 1007.86 hPa NW 37 km/h 37 km/h 95% 1.19 mm 11 W/m2
13:49 8 °C 7 °C 1007.82 hPa NNW 36 km/h 42 km/h 95% 1.19 mm 11 W/m2
13:54 8 °C 7 °C 1007.89 hPa N 34 km/h 40 km/h 95% 1.19 mm 9 W/m2
13:59 8 °C 7 °C 1007.86 hPa N 30 km/h 40 km/h 95% 1.19 mm 7 W/m2
14:04 8 °C 7 °C 1007.69 hPa N 32 km/h 35 km/h 95% 1.19 mm 7 W/m2
14:09 8 °C 7 °C 1007.72 hPa N 42 km/h 53 km/h 95% 1.19 mm 7 W/m2
14:14 8 °C 7 °C 1007.62 hPa NNE 32 km/h 53 km/h 95% 1.19 mm 5 W/m2
14:19 8 °C 7 °C 1007.55 hPa WNW 23 km/h 32 km/h 95% 1.4 mm 5 W/m2
14:24 8 °C 7 °C 1007.52 hPa NW 33 km/h 34 km/h 95% 1.4 mm 5 W/m2
14:29 8 °C 7 °C 1007.32 hPa N 30 km/h 42 km/h 95% 1.4 mm 5 W/m2
14:34 8 °C 7 °C 1007.25 hPa N 30 km/h 34 km/h 95% 1.4 mm 5 W/m2
14:39 8 °C 7 °C 1007.18 hPa N 34 km/h 32 km/h 95% 1.19 mm 5 W/m2
14:44 8 °C 7 °C 1007.04 hPa NW 35 km/h 39 km/h 95% 1.19 mm 5 W/m2
14:49 8 °C 7 °C 1006.87 hPa N 36 km/h 37 km/h 95% 1.4 mm 5 W/m2
14:54 8 °C 7 °C 1006.84 hPa N 35 km/h 43 km/h 95% 1.19 mm 0 W/m2
14:59 8 °C 7 °C 1006.87 hPa NNW 36 km/h 39 km/h 95% 1.19 mm 0 W/m2
15:04 8 °C 7 °C 1006.77 hPa N 37 km/h 42 km/h 95% 1.19 mm 0 W/m2
15:09 8 °C 7 °C 1006.64 hPa N 39 km/h 48 km/h 95% 1.4 mm 0 W/m2
15:14 8 °C 7 °C 1006.5 hPa N 36 km/h 42 km/h 95% 1.4 mm 0 W/m2
15:19 8 °C 7 °C 1006.47 hPa N 32 km/h 39 km/h 95% 1.19 mm 0 W/m2
15:24 8 °C 7 °C 1006.37 hPa NNW 34 km/h 37 km/h 95% 1.4 mm 0 W/m2
15:29 8 °C 7 °C 1006.3 hPa NNW 37 km/h 35 km/h 95% 1.6 mm 0 W/m2
15:34 8 °C 7 °C 1006.03 hPa N 42 km/h 45 km/h 95% 1.6 mm 0 W/m2
15:39 8 °C 7 °C 1005.83 hPa NNE 35 km/h 45 km/h 94% 1.4 mm 0 W/m2
15:44 8 °C 7 °C 1005.72 hPa W 34 km/h 39 km/h 94% 1.4 mm 0 W/m2
15:49 8 °C 7 °C 1005.62 hPa NNE 34 km/h 39 km/h 94% 1.19 mm 0 W/m2
15:54 8 °C 7 °C 1005.62 hPa N 38 km/h 37 km/h 94% 0.99 mm 0 W/m2
15:59 8 °C 7 °C 1005.55 hPa NNW 41 km/h 42 km/h 94% 1.19 mm 0 W/m2
16:04 8 °C 7 °C 1005.62 hPa NNW 36 km/h 51 km/h 94% 1.19 mm 0 W/m2
16:09 8 °C 7 °C 1005.49 hPa N 40 km/h 42 km/h 95% 0.99 mm 0 W/m2
16:14 8 °C 7 °C 1005.66 hPa NNW 38 km/h 47 km/h 95% 0.99 mm 0 W/m2
16:19 8 °C 7 °C 1005.62 hPa NNE 38 km/h 43 km/h 95% 1.19 mm 0 W/m2
16:24 8 °C 7 °C 1005.52 hPa NNE 37 km/h 42 km/h 95% 1.4 mm 0 W/m2
16:29 8 °C 7 °C 1005.62 hPa N 38 km/h 47 km/h 95% 1.4 mm 0 W/m2
16:34 8 °C 7 °C 1005.52 hPa NNW 44 km/h 43 km/h 95% 1.6 mm 0 W/m2
16:39 8 °C 7 °C 1005.52 hPa N 38 km/h 48 km/h 95% 2.01 mm 0 W/m2
16:44 8 °C 7 °C 1005.49 hPa NW 36 km/h 40 km/h 96% 2.39 mm 0 W/m2
16:49 8 °C 7 °C 1005.35 hPa N 33 km/h 43 km/h 96% 2.59 mm 0 W/m2
16:54 8 °C 7 °C 1005.45 hPa N 43 km/h 42 km/h 96% 2.79 mm 0 W/m2
16:59 8 °C 7 °C 1005.35 hPa N 38 km/h 48 km/h 96% 3 mm 0 W/m2
17:04 8 °C 7 °C 1005.18 hPa N 39 km/h 42 km/h 96% 3 mm 0 W/m2
17:09 8 °C 7 °C 1004.98 hPa N 41 km/h 47 km/h 96% 3.2 mm 0 W/m2
17:14 8 °C 7 °C 1004.84 hPa NNW 38 km/h 45 km/h 96% 3.2 mm 0 W/m2
17:19 8 °C 7 °C 1004.78 hPa N 33 km/h 42 km/h 96% 3.2 mm 0 W/m2
17:24 8 °C 7 °C 1004.67 hPa NNE 35 km/h 42 km/h 96% 3.2 mm 0 W/m2
17:29 8 °C 7 °C 1004.5 hPa NNE 42 km/h 43 km/h 96% 3 mm 0 W/m2
17:34 8 °C 7 °C 1004.37 hPa N 37 km/h 45 km/h 96% 3 mm 0 W/m2
17:39 8 °C 7 °C 1004.4 hPa N 34 km/h 42 km/h 97% 2.79 mm 0 W/m2
17:44 8 °C 7 °C 1004.37 hPa N 34 km/h 37 km/h 97% 2.79 mm 0 W/m2
17:49 8 °C 7 °C 1004.3 hPa NNE 43 km/h 47 km/h 97% 2.59 mm 0 W/m2
17:54 8 °C 7 °C 1004.3 hPa N 34 km/h 50 km/h 97% 2.59 mm 0 W/m2
17:59 8 °C 7 °C 1004.34 hPa NW 34 km/h 42 km/h 97% 2.59 mm 0 W/m2
18:04 8 °C 7 °C 1004.3 hPa N 43 km/h 40 km/h 97% 2.59 mm 0 W/m2
18:09 8 °C 7 °C 1004.06 hPa N 40 km/h 51 km/h 97% 2.59 mm 0 W/m2
18:14 8 °C 7 °C 1004.03 hPa N 40 km/h 47 km/h 97% 2.59 mm 0 W/m2
18:19 8 °C 7 °C 1004 hPa N 37 km/h 42 km/h 97% 2.39 mm 0 W/m2
18:24 8 °C 7 °C 1003.93 hPa NNE 43 km/h 42 km/h 97% 2.39 mm 0 W/m2
18:29 8 °C 7 °C 1003.93 hPa NNE 36 km/h 45 km/h 97% 2.39 mm 0 W/m2
18:34 8 °C 8 °C 1003.93 hPa N 40 km/h 53 km/h 97% 2.39 mm 0 W/m2
18:39 8 °C 7 °C 1003.86 hPa N 39 km/h 45 km/h 97% 2.39 mm 0 W/m2
18:44 8 °C 8 °C 1003.83 hPa N 41 km/h 43 km/h 97% 2.39 mm 0 W/m2
18:49 8 °C 8 °C 1003.89 hPa N 43 km/h 45 km/h 97% 2.39 mm 0 W/m2
18:54 8 °C 8 °C 1003.66 hPa N 39 km/h 48 km/h 97% 2.39 mm 0 W/m2
18:59 8 °C 8 °C 1003.56 hPa NNE 40 km/h 43 km/h 97% 2.21 mm 0 W/m2
19:04 8 °C 8 °C 1003.49 hPa N 37 km/h 42 km/h 97% 2.21 mm 0 W/m2
19:09 8 °C 8 °C 1003.39 hPa N 35 km/h 40 km/h 97% 2.01 mm 0 W/m2
19:14 8 °C 8 °C 1003.39 hPa N 37 km/h 40 km/h 97% 2.01 mm 0 W/m2
19:19 8 °C 8 °C 1003.32 hPa NNW 41 km/h 50 km/h 97% 1.8 mm 0 W/m2
19:24 8 °C 8 °C 1003.32 hPa N 41 km/h 50 km/h 97% 1.8 mm 0 W/m2
19:29 8 °C 8 °C 1003.18 hPa N 43 km/h 43 km/h 97% 1.8 mm 0 W/m2
19:34 8 °C 8 °C 1003.15 hPa WNW 46 km/h 51 km/h 97% 1.6 mm 0 W/m2
19:39 8 °C 8 °C 1003.32 hPa NNW 36 km/h 56 km/h 97% 1.4 mm 0 W/m2
19:44 8 °C 8 °C 1003.29 hPa NNW 37 km/h 39 km/h 97% 1.4 mm 0 W/m2
19:49 8 °C 8 °C 1003.32 hPa N 39 km/h 45 km/h 97% 1.4 mm 0 W/m2
19:54 8 °C 8 °C 1003.32 hPa N 37 km/h 45 km/h 97% 1.4 mm 0 W/m2
19:59 8 °C 8 °C 1003.32 hPa N 37 km/h 42 km/h 97% 1.6 mm 0 W/m2
20:04 8 °C 8 °C 1003.25 hPa N 33 km/h 56 km/h 97% 1.6 mm 0 W/m2
20:09 8 °C 8 °C 1003.29 hPa N 35 km/h 39 km/h 97% 1.6 mm 0 W/m2
20:14 8 °C 8 °C 1003.22 hPa N 35 km/h 43 km/h 97% 1.6 mm 0 W/m2
20:19 8 °C 8 °C 1003.22 hPa N 33 km/h 40 km/h 97% 1.8 mm 0 W/m2
20:24 8 °C 8 °C 1003.22 hPa N 35 km/h 39 km/h 97% 2.01 mm 0 W/m2
20:29 8 °C 8 °C 1003.18 hPa NNE 37 km/h 47 km/h 97% 2.01 mm 0 W/m2
20:34 8 °C 8 °C 1003.18 hPa NNW 31 km/h 47 km/h 97% 2.21 mm 0 W/m2
20:39 8 °C 8 °C 1003.25 hPa NNW 34 km/h 34 km/h 97% 2.21 mm 0 W/m2
20:44 8 °C 8 °C 1003.18 hPa N 34 km/h 40 km/h 97% 2.39 mm 0 W/m2
20:49 8 °C 8 °C 1003.22 hPa N 38 km/h 43 km/h 97% 2.39 mm 0 W/m2
20:54 8 °C 8 °C 1003.15 hPa N 32 km/h 39 km/h 97% 2.39 mm 0 W/m2
20:59 8 °C 8 °C 1003.08 hPa NNE 37 km/h 34 km/h 97% 2.39 mm 0 W/m2
21:04 8 °C 8 °C 1002.98 hPa NW 32 km/h 47 km/h 97% 2.39 mm 0 W/m2
21:09 8 °C 8 °C 1002.95 hPa NNW 31 km/h 37 km/h 97% 2.21 mm 0 W/m2
21:14 8 °C 8 °C 1002.88 hPa W 32 km/h 42 km/h 97% 2.21 mm 0 W/m2
21:19 8 °C 8 °C 1003.05 hPa WNW 28 km/h 32 km/h 97% 2.21 mm 0 W/m2
21:24 8 °C 8 °C 1003.05 hPa N 34 km/h 37 km/h 97% 2.01 mm 0 W/m2
21:29 8 °C 8 °C 1002.88 hPa NNW 35 km/h 37 km/h 97% 2.01 mm 0 W/m2
21:34 8 °C 8 °C 1002.95 hPa W 29 km/h 43 km/h 97% 2.01 mm 0 W/m2
21:39 8 °C 8 °C 1003.05 hPa N 33 km/h 32 km/h 97% 1.8 mm 0 W/m2
21:44 8 °C 8 °C 1003.05 hPa N 24 km/h 39 km/h 97% 1.6 mm 0 W/m2
21:49 8 °C 8 °C 1003.01 hPa NW 31 km/h 27 km/h 97% 1.4 mm 0 W/m2
21:54 8 °C 8 °C 1002.85 hPa W 23 km/h 37 km/h 97% 1.4 mm 0 W/m2
21:59 8 °C 8 °C 1002.91 hPa WNW 25 km/h 29 km/h 97% 1.19 mm 0 W/m2
22:04 8 °C 8 °C 1002.91 hPa WNW 26 km/h 37 km/h 97% 0.99 mm 0 W/m2
22:09 8 °C 8 °C 1002.91 hPa NW 27 km/h 35 km/h 97% 1.19 mm 0 W/m2
22:14 8 °C 8 °C 1002.88 hPa NNW 23 km/h 18 km/h 97% 0.99 mm 0 W/m2
22:19 8 °C 8 °C 1002.81 hPa NW 28 km/h 32 km/h 97% 0.99 mm 0 W/m2
22:24 8 °C 8 °C 1002.85 hPa NW 26 km/h 32 km/h 97% 0.79 mm 0 W/m2
22:29 8 °C 8 °C 1002.81 hPa NW 28 km/h 32 km/h 97% 0.99 mm 0 W/m2
22:34 8 °C 8 °C 1002.81 hPa WNW 24 km/h 35 km/h 97% 0.79 mm 0 W/m2
22:39 8 °C 8 °C 1002.81 hPa WNW 28 km/h 27 km/h 97% 0.79 mm 0 W/m2
22:44 8 °C 8 °C 1002.71 hPa NNW 28 km/h 34 km/h 97% 0.79 mm 0 W/m2
22:49 8 °C 8 °C 1002.88 hPa WNW 25 km/h 35 km/h 96% 0.61 mm 0 W/m2
22:54 8 °C 8 °C 1002.91 hPa NW 22 km/h 32 km/h 96% 0.61 mm 0 W/m2
22:59 8 °C 8 °C 1002.91 hPa NW 36 km/h 29 km/h 96% 0.41 mm 0 W/m2
23:04 8 °C 8 °C 1003.05 hPa NW 23 km/h 45 km/h 96% 0.41 mm 0 W/m2
23:09 8 °C 8 °C 1003.01 hPa NNW 24 km/h 32 km/h 96% 0.41 mm 0 W/m2
23:14 8 °C 8 °C 1003.01 hPa NNW 26 km/h 29 km/h 96% 0.41 mm 0 W/m2
23:19 8 °C 8 °C 1002.98 hPa NW 26 km/h 27 km/h 96% 0.41 mm 0 W/m2
23:24 8 °C 8 °C 1002.98 hPa WNW 26 km/h 32 km/h 96% 0.41 mm 0 W/m2
23:29 8 °C 8 °C 1002.98 hPa WNW 29 km/h 34 km/h 96% 0.41 mm 0 W/m2
23:34 8 °C 8 °C 1002.91 hPa NW 22 km/h 34 km/h 96% 0.2 mm 0 W/m2
23:39 8 °C 8 °C 1002.74 hPa NW 16 km/h 29 km/h 96% 0.41 mm 0 W/m2
23:44 8 °C 8 °C 1002.74 hPa NW 23 km/h 23 km/h 96% 0.41 mm 0 W/m2
23:49 8 °C 8 °C 1002.71 hPa WNW 17 km/h 32 km/h 96% 0.41 mm 0 W/m2
23:54 8 °C 8 °C 1002.71 hPa WNW 23 km/h 23 km/h 96% 0.41 mm 0 W/m2
23:59 8 °C 8 °C 1002.74 hPa WNW 25 km/h 32 km/h 96% 0.41 mm 0 W/m2
Compliments of Weather Underground - 2 mb